Year,Month,Day,Hour,Minute,Value (Times are PST for temperature in C)
2007,02,01,00,00,-1.10
2007,02,01,00,01,-1.10
2007,02,01,00,02,-1.10
2007,02,01,00,03,-1.00
2007,02,01,00,04,-1.00
2007,02,01,00,05,-0.90
2007,02,01,00,06,-0.90
2007,02,01,00,07,-0.80
2007,02,01,00,08,-0.80
2007,02,01,00,09,-0.80
2007,02,01,00,10,-0.80
2007,02,01,00,11,-0.80
2007,02,01,00,12,-0.80
2007,02,01,00,13,-0.80
2007,02,01,00,14,-0.80
2007,02,01,00,15,-0.80
2007,02,01,00,16,-0.80
2007,02,01,00,17,-0.80
2007,02,01,00,18,-0.80
2007,02,01,00,19,-0.70
2007,02,01,00,20,-0.70
2007,02,01,00,21,-0.70
2007,02,01,00,22,-0.70
2007,02,01,00,23,-0.80
2007,02,01,00,24,-0.80
2007,02,01,00,25,-0.80
2007,02,01,00,26,-0.80
2007,02,01,00,27,-0.80
2007,02,01,00,28,-0.80
2007,02,01,00,29,-0.80
2007,02,01,00,30,-0.80
2007,02,01,00,31,-0.80
2007,02,01,00,32,-0.80
2007,02,01,00,33,-0.80
2007,02,01,00,34,-0.80
2007,02,01,00,35,-0.90
2007,02,01,00,36,-0.90
2007,02,01,00,37,-0.90
2007,02,01,00,38,-0.90
2007,02,01,00,39,-0.90
2007,02,01,00,40,-1.00
2007,02,01,00,41,-1.00
2007,02,01,00,42,-1.00
2007,02,01,00,43,-1.00
2007,02,01,00,44,-1.00
2007,02,01,00,45,-1.00
2007,02,01,00,46,-1.00
2007,02,01,00,47,-1.00
2007,02,01,00,48,-0.90
2007,02,01,00,49,-0.90
2007,02,01,00,50,-0.90
2007,02,01,00,51,-0.80
2007,02,01,00,52,-0.90
2007,02,01,00,53,-0.90
2007,02,01,00,54,-0.90
2007,02,01,00,55,-0.90
2007,02,01,00,56,-0.90
2007,02,01,00,57,-0.80
2007,02,01,00,58,-0.80
2007,02,01,00,59,-0.80
2007,02,01,01,00,-0.80
2007,02,01,01,01,-0.80
2007,02,01,01,02,-0.80
2007,02,01,01,03,-0.70
2007,02,01,01,04,-0.70
2007,02,01,01,05,-0.70
2007,02,01,01,06,-0.70
2007,02,01,01,07,-0.70
2007,02,01,01,08,-0.70
2007,02,01,01,09,-0.70
2007,02,01,01,10,-0.70
2007,02,01,01,11,-0.70
2007,02,01,01,12,-0.60
2007,02,01,01,13,-0.60
2007,02,01,01,14,-0.60
2007,02,01,01,15,-0.50
2007,02,01,01,16,-0.50
2007,02,01,01,17,-0.50
2007,02,01,01,18,-0.50
2007,02,01,01,19,-0.50
2007,02,01,01,20,-0.50
2007,02,01,01,21,-0.50
2007,02,01,01,22,-0.50
2007,02,01,01,23,-0.50
2007,02,01,01,24,-0.50
2007,02,01,01,25,-0.50
2007,02,01,01,26,-0.50
2007,02,01,01,27,-0.60
2007,02,01,01,28,-0.60
2007,02,01,01,29,-0.60
2007,02,01,01,30,-0.60
2007,02,01,01,31,-0.60
2007,02,01,01,32,-0.60
2007,02,01,01,33,-0.60
2007,02,01,01,34,-0.60
2007,02,01,01,35,-0.60
2007,02,01,01,36,-0.60
2007,02,01,01,37,-0.60
2007,02,01,01,38,-0.60
2007,02,01,01,39,-0.60
2007,02,01,01,40,-0.60
2007,02,01,01,41,-0.60
2007,02,01,01,42,-0.70
2007,02,01,01,43,-0.70
2007,02,01,01,44,-0.70
2007,02,01,01,45,-0.80
2007,02,01,01,46,-0.80
2007,02,01,01,47,-0.80
2007,02,01,01,48,-0.90
2007,02,01,01,49,-0.90
2007,02,01,01,50,-0.90
2007,02,01,01,51,-0.80
2007,02,01,01,52,-0.70
2007,02,01,01,53,-0.70
2007,02,01,01,54,-0.60
2007,02,01,01,55,-0.60
2007,02,01,01,56,-0.70
2007,02,01,01,57,-0.70
2007,02,01,01,58,-0.70
2007,02,01,01,59,-0.70
2007,02,01,02,00,-0.70
2007,02,01,02,01,-0.70
2007,02,01,02,02,-0.70
2007,02,01,02,03,-0.70
2007,02,01,02,04,-0.70
2007,02,01,02,05,-0.60
2007,02,01,02,06,-0.60
2007,02,01,02,07,-0.60
2007,02,01,02,08,-0.50
2007,02,01,02,09,-0.40
2007,02,01,02,10,-0.30
2007,02,01,02,11,-0.30
2007,02,01,02,12,-0.20
2007,02,01,02,13,-0.20
2007,02,01,02,14,-0.20
2007,02,01,02,15,-0.20
2007,02,01,02,16,-0.10
2007,02,01,02,17,-0.10
2007,02,01,02,18,0.00
2007,02,01,02,19,0.10
2007,02,01,02,20,0.10
2007,02,01,02,21,0.10
2007,02,01,02,22,0.10
2007,02,01,02,23,0.00
2007,02,01,02,24,0.00
2007,02,01,02,25,0.00
2007,02,01,02,26,-0.10
2007,02,01,02,27,-0.10
2007,02,01,02,28,-0.20
2007,02,01,02,29,-0.20
2007,02,01,02,30,-0.20
2007,02,01,02,31,-0.10
2007,02,01,02,32,-0.10
2007,02,01,02,33,-0.10
2007,02,01,02,34,0.00
2007,02,01,02,35,0.00
2007,02,01,02,36,0.00
2007,02,01,02,37,0.00
2007,02,01,02,38,0.00
2007,02,01,02,39,0.20
2007,02,01,02,40,0.40
2007,02,01,02,41,0.40
2007,02,01,02,42,0.50
2007,02,01,02,43,0.50
2007,02,01,02,44,0.50
2007,02,01,02,45,0.40
2007,02,01,02,46,0.40
2007,02,01,02,47,0.40
2007,02,01,02,48,0.50
2007,02,01,02,49,0.70
2007,02,01,02,50,0.80
2007,02,01,02,51,0.80
2007,02,01,02,52,0.80
2007,02,01,02,53,0.90
2007,02,01,02,54,0.90
2007,02,01,02,55,0.90
2007,02,01,02,56,1.00
2007,02,01,02,57,1.00
2007,02,01,02,58,1.00
2007,02,01,02,59,1.10
2007,02,01,03,00,1.20
2007,02,01,03,01,1.30
2007,02,01,03,02,1.30
2007,02,01,03,03,1.30
2007,02,01,03,04,1.30
2007,02,01,03,05,1.40
2007,02,01,03,06,1.50
2007,02,01,03,07,1.60
2007,02,01,03,08,1.60
2007,02,01,03,09,1.60
2007,02,01,03,10,1.60
2007,02,01,03,11,1.60
2007,02,01,03,12,1.60
2007,02,01,03,13,1.70
2007,02,01,03,14,1.60
2007,02,01,03,15,1.60
2007,02,01,03,16,1.60
2007,02,01,03,17,1.60
2007,02,01,03,18,1.70
2007,02,01,03,19,1.80
2007,02,01,03,20,1.80
2007,02,01,03,21,1.80
2007,02,01,03,22,1.80
2007,02,01,03,23,1.70
2007,02,01,03,24,1.60
2007,02,01,03,25,1.60
2007,02,01,03,26,1.60
2007,02,01,03,27,1.60
2007,02,01,03,28,1.70
2007,02,01,03,29,1.80
2007,02,01,03,30,1.90
2007,02,01,03,31,2.00
2007,02,01,03,32,2.10
2007,02,01,03,33,2.10
2007,02,01,03,34,2.10
2007,02,01,03,35,2.20
2007,02,01,03,36,2.20
2007,02,01,03,37,2.20
2007,02,01,03,38,2.20
2007,02,01,03,39,2.20
2007,02,01,03,40,2.20
2007,02,01,03,41,2.20
2007,02,01,03,42,2.20
2007,02,01,03,43,2.20
2007,02,01,03,44,2.20
2007,02,01,03,45,2.20
2007,02,01,03,46,2.30
2007,02,01,03,47,2.30
2007,02,01,03,48,2.40
2007,02,01,03,49,2.50
2007,02,01,03,50,2.70
2007,02,01,03,51,2.90
2007,02,01,03,52,3.00
2007,02,01,03,53,3.10
2007,02,01,03,54,3.10
2007,02,01,03,55,3.10
2007,02,01,03,56,3.20
2007,02,01,03,57,3.30
2007,02,01,03,58,3.40
2007,02,01,03,59,3.40
2007,02,01,04,00,3.50
2007,02,01,04,01,3.60
2007,02,01,04,02,3.60
2007,02,01,04,03,3.60
2007,02,01,04,04,3.60
2007,02,01,04,05,3.70
2007,02,01,04,06,3.80
2007,02,01,04,07,3.80
2007,02,01,04,08,3.90
2007,02,01,04,09,4.00
2007,02,01,04,10,4.10
2007,02,01,04,11,4.10
2007,02,01,04,12,4.20
2007,02,01,04,13,4.30
2007,02,01,04,14,4.40
2007,02,01,04,15,4.50
2007,02,01,04,16,4.60
2007,02,01,04,17,4.60
2007,02,01,04,18,4.60
2007,02,01,04,19,4.70
2007,02,01,04,20,4.70
2007,02,01,04,21,4.70
2007,02,01,04,22,4.70
2007,02,01,04,23,4.70
2007,02,01,04,24,4.70
2007,02,01,04,25,4.70
2007,02,01,04,26,4.70
2007,02,01,04,27,4.70
2007,02,01,04,28,4.70
2007,02,01,04,29,4.60
2007,02,01,04,30,4.70
2007,02,01,04,31,4.80
2007,02,01,04,32,4.90
2007,02,01,04,33,4.90
2007,02,01,04,34,5.00
2007,02,01,04,35,5.00
2007,02,01,04,36,5.00
2007,02,01,04,37,5.00
2007,02,01,04,38,5.00
2007,02,01,04,39,4.90
2007,02,01,04,40,4.90
2007,02,01,04,41,4.90
2007,02,01,04,42,4.80
2007,02,01,04,43,4.70
2007,02,01,04,44,4.70
2007,02,01,04,45,4.80
2007,02,01,04,46,4.80
2007,02,01,04,47,4.80
2007,02,01,04,48,4.90
2007,02,01,04,49,4.90
2007,02,01,04,50,5.00
2007,02,01,04,51,5.00
2007,02,01,04,52,5.00
2007,02,01,04,53,5.00
2007,02,01,04,54,5.00
2007,02,01,04,55,5.10
2007,02,01,04,56,5.10
2007,02,01,04,57,5.20
2007,02,01,04,58,5.20
2007,02,01,04,59,5.20
2007,02,01,05,00,5.20
2007,02,01,05,01,5.30
2007,02,01,05,02,5.30
2007,02,01,05,03,5.30
2007,02,01,05,04,5.30
2007,02,01,05,05,5.30
2007,02,01,05,06,5.30
2007,02,01,05,07,5.30
2007,02,01,05,08,5.40
2007,02,01,05,09,5.40
2007,02,01,05,10,5.40
2007,02,01,05,11,5.40
2007,02,01,05,12,5.40
2007,02,01,05,13,5.40
2007,02,01,05,14,5.40
2007,02,01,05,15,5.40
2007,02,01,05,16,5.40
2007,02,01,05,17,5.40
2007,02,01,05,18,5.40
2007,02,01,05,19,5.30
2007,02,01,05,20,5.40
2007,02,01,05,21,5.40
2007,02,01,05,22,5.40
2007,02,01,05,23,5.40
2007,02,01,05,24,5.30
2007,02,01,05,25,5.30
2007,02,01,05,26,5.30
2007,02,01,05,27,5.20
2007,02,01,05,28,5.20
2007,02,01,05,29,5.10
2007,02,01,05,30,5.20
2007,02,01,05,31,5.20
2007,02,01,05,32,5.20
2007,02,01,05,33,5.20
2007,02,01,05,34,5.20
2007,02,01,05,35,5.20
2007,02,01,05,36,5.30
2007,02,01,05,37,5.30
2007,02,01,05,38,5.30
2007,02,01,05,39,5.30
2007,02,01,05,40,5.30
2007,02,01,05,41,5.30
2007,02,01,05,42,5.30
2007,02,01,05,43,5.30
2007,02,01,05,44,5.30
2007,02,01,05,45,5.30
2007,02,01,05,46,5.30
2007,02,01,05,47,5.30
2007,02,01,05,48,5.20
2007,02,01,05,49,5.10
2007,02,01,05,50,5.10
2007,02,01,05,51,5.10
2007,02,01,05,52,5.00
2007,02,01,05,53,5.00
2007,02,01,05,54,5.00
2007,02,01,05,55,5.10
2007,02,01,05,56,5.10
2007,02,01,05,57,5.10
2007,02,01,05,58,5.10
2007,02,01,05,59,5.10
2007,02,01,06,00,5.10
2007,02,01,06,01,5.10
2007,02,01,06,02,5.10
2007,02,01,06,03,5.10
2007,02,01,06,04,5.10
2007,02,01,06,05,5.10
2007,02,01,06,06,5.10
2007,02,01,06,07,5.10
2007,02,01,06,08,5.20
2007,02,01,06,09,5.10
2007,02,01,06,10,5.10
2007,02,01,06,11,5.00
2007,02,01,06,12,4.90
2007,02,01,06,13,4.90
2007,02,01,06,14,4.80
2007,02,01,06,15,4.70
2007,02,01,06,16,4.60
2007,02,01,06,17,4.40
2007,02,01,06,18,4.30
2007,02,01,06,19,4.30
2007,02,01,06,20,4.20
2007,02,01,06,21,4.20
2007,02,01,06,22,4.10
2007,02,01,06,23,4.10
2007,02,01,06,24,4.20
2007,02,01,06,25,4.20
2007,02,01,06,26,4.20
2007,02,01,06,27,4.30
2007,02,01,06,28,4.30
2007,02,01,06,29,4.30
2007,02,01,06,30,4.30
2007,02,01,06,31,4.30
2007,02,01,06,32,4.30
2007,02,01,06,33,4.30
2007,02,01,06,34,4.20
2007,02,01,06,35,4.20
2007,02,01,06,36,4.20
2007,02,01,06,37,4.10
2007,02,01,06,38,4.10
2007,02,01,06,39,4.10
2007,02,01,06,40,4.10
2007,02,01,06,41,4.10
2007,02,01,06,42,4.00
2007,02,01,06,43,4.00
2007,02,01,06,44,4.00
2007,02,01,06,45,3.90
2007,02,01,06,46,3.90
2007,02,01,06,47,3.80
2007,02,01,06,48,3.70
2007,02,01,06,49,3.70
2007,02,01,06,50,3.70
2007,02,01,06,51,3.70
2007,02,01,06,52,3.70
2007,02,01,06,53,3.70
2007,02,01,06,54,3.70
2007,02,01,06,55,3.80
2007,02,01,06,56,3.80
2007,02,01,06,57,3.80
2007,02,01,06,58,3.80
2007,02,01,06,59,3.80
2007,02,01,07,00,3.70
2007,02,01,07,01,3.70
2007,02,01,07,02,3.70
2007,02,01,07,03,3.60
2007,02,01,07,04,3.60
2007,02,01,07,05,3.60
2007,02,01,07,06,3.60
2007,02,01,07,07,3.50
2007,02,01,07,08,3.40
2007,02,01,07,09,3.40
2007,02,01,07,10,3.30
2007,02,01,07,11,3.20
2007,02,01,07,12,3.10
2007,02,01,07,13,3.00
2007,02,01,07,14,3.00
2007,02,01,07,15,2.90
2007,02,01,07,16,2.90
2007,02,01,07,17,2.90
2007,02,01,07,18,2.90
2007,02,01,07,19,2.80
2007,02,01,07,20,2.80
2007,02,01,07,21,2.90
2007,02,01,07,22,3.10
2007,02,01,07,23,3.10
2007,02,01,07,24,3.10
2007,02,01,07,25,3.10
2007,02,01,07,26,3.10
2007,02,01,07,27,3.00
2007,02,01,07,28,2.90
2007,02,01,07,29,2.90
2007,02,01,07,30,3.00
2007,02,01,07,31,3.10
2007,02,01,07,32,3.10
2007,02,01,07,33,3.10
2007,02,01,07,34,3.10
2007,02,01,07,35,3.10
2007,02,01,07,36,3.10
2007,02,01,07,37,3.20
2007,02,01,07,38,3.20
2007,02,01,07,39,3.30
2007,02,01,07,40,3.30
2007,02,01,07,41,3.30
2007,02,01,07,42,3.30
2007,02,01,07,43,3.30
2007,02,01,07,44,3.30
2007,02,01,07,45,3.20
2007,02,01,07,46,3.10
2007,02,01,07,47,3.00
2007,02,01,07,48,3.00
2007,02,01,07,49,2.90
2007,02,01,07,50,2.90
2007,02,01,07,51,2.90
2007,02,01,07,52,2.90
2007,02,01,07,53,2.90
2007,02,01,07,54,2.90
2007,02,01,07,55,2.90
2007,02,01,07,56,3.00
2007,02,01,07,57,3.00
2007,02,01,07,58,3.00
2007,02,01,07,59,3.00
2007,02,01,08,00,3.00
2007,02,01,08,01,3.00
2007,02,01,08,02,3.10
2007,02,01,08,03,3.10
2007,02,01,08,04,3.10
2007,02,01,08,05,3.10
2007,02,01,08,06,3.10
2007,02,01,08,07,3.10
2007,02,01,08,08,3.10
2007,02,01,08,09,3.10
2007,02,01,08,10,3.20
2007,02,01,08,11,3.30
2007,02,01,08,12,3.30
2007,02,01,08,13,3.40
2007,02,01,08,14,3.50
2007,02,01,08,15,3.60
2007,02,01,08,16,3.80
2007,02,01,08,17,3.90
2007,02,01,08,18,4.10
2007,02,01,08,19,4.20
2007,02,01,08,20,4.30
2007,02,01,08,21,4.40
2007,02,01,08,22,4.50
2007,02,01,08,23,4.60
2007,02,01,08,24,4.70
2007,02,01,08,25,4.90
2007,02,01,08,26,5.00
2007,02,01,08,27,5.10
2007,02,01,08,28,5.20
2007,02,01,08,29,5.30
2007,02,01,08,30,5.40
2007,02,01,08,31,5.50
2007,02,01,08,32,5.50
2007,02,01,08,33,5.60
2007,02,01,08,34,5.70
2007,02,01,08,35,5.70
2007,02,01,08,36,5.70
2007,02,01,08,37,5.80
2007,02,01,08,38,5.80
2007,02,01,08,39,5.90
2007,02,01,08,40,5.90
2007,02,01,08,41,6.00
2007,02,01,08,42,6.00
2007,02,01,08,43,6.10
2007,02,01,08,44,6.10
2007,02,01,08,45,6.10
2007,02,01,08,46,6.10
2007,02,01,08,47,6.10
2007,02,01,08,48,6.20
2007,02,01,08,49,6.20
2007,02,01,08,50,6.20
2007,02,01,08,51,6.20
2007,02,01,08,52,6.20
2007,02,01,08,53,6.20
2007,02,01,08,54,6.10
2007,02,01,08,55,6.00
2007,02,01,08,56,6.00
2007,02,01,08,57,6.00
2007,02,01,08,58,6.00
2007,02,01,08,59,6.00
2007,02,01,09,00,6.00
2007,02,01,09,01,6.00
2007,02,01,09,02,6.10
2007,02,01,09,03,6.10
2007,02,01,09,04,6.10
2007,02,01,09,05,6.20
2007,02,01,09,06,6.30
2007,02,01,09,07,6.30
2007,02,01,09,08,6.30
2007,02,01,09,09,6.40
2007,02,01,09,10,6.40
2007,02,01,09,11,6.40
2007,02,01,09,12,6.40
2007,02,01,09,13,6.40
2007,02,01,09,14,6.50
2007,02,01,09,15,6.50
2007,02,01,09,16,6.60
2007,02,01,09,17,6.60
2007,02,01,09,18,6.70
2007,02,01,09,19,6.70
2007,02,01,09,20,6.70
2007,02,01,09,21,6.80
2007,02,01,09,22,6.80
2007,02,01,09,23,6.90
2007,02,01,09,24,6.90
2007,02,01,09,25,7.00
2007,02,01,09,26,7.00
2007,02,01,09,27,7.10
2007,02,01,09,28,7.10
2007,02,01,09,29,7.10
2007,02,01,09,30,7.20
2007,02,01,09,31,7.20
2007,02,01,09,32,7.20
2007,02,01,09,33,7.20
2007,02,01,09,34,7.20
2007,02,01,09,35,7.30
2007,02,01,09,36,7.30
2007,02,01,09,37,7.30
2007,02,01,09,38,7.30
2007,02,01,09,39,7.30
2007,02,01,09,40,7.30
2007,02,01,09,41,7.30
2007,02,01,09,42,7.40
2007,02,01,09,43,7.40
2007,02,01,09,44,7.40
2007,02,01,09,45,7.50
2007,02,01,09,46,7.50
2007,02,01,09,47,7.60
2007,02,01,09,48,7.60
2007,02,01,09,49,7.60
2007,02,01,09,50,7.70
2007,02,01,09,51,7.70
2007,02,01,09,52,7.70
2007,02,01,09,53,7.80
2007,02,01,09,54,7.80
2007,02,01,09,55,7.80
2007,02,01,09,56,7.80
2007,02,01,09,57,7.80
2007,02,01,09,58,7.80
2007,02,01,09,59,7.80
2007,02,01,10,00,7.80
2007,02,01,10,01,7.80
2007,02,01,10,02,7.90
2007,02,01,10,03,7.90
2007,02,01,10,04,8.00
2007,02,01,10,05,8.00
2007,02,01,10,06,8.10
2007,02,01,10,07,8.10
2007,02,01,10,08,8.10
2007,02,01,10,09,8.10
2007,02,01,10,10,8.10
2007,02,01,10,11,8.10
2007,02,01,10,12,8.10
2007,02,01,10,13,8.00
2007,02,01,10,14,8.00
2007,02,01,10,15,8.00
2007,02,01,10,16,8.00
2007,02,01,10,17,8.00
2007,02,01,10,18,8.00
2007,02,01,10,19,8.10
2007,02,01,10,20,8.10
2007,02,01,10,21,8.10
2007,02,01,10,22,8.20
2007,02,01,10,23,8.20
2007,02,01,10,24,8.20
2007,02,01,10,25,8.30
2007,02,01,10,26,8.20
2007,02,01,10,27,8.30
2007,02,01,10,28,8.30
2007,02,01,10,29,8.30
2007,02,01,10,30,8.30
2007,02,01,10,31,8.30
2007,02,01,10,32,8.40
2007,02,01,10,33,8.40
2007,02,01,10,34,8.50
2007,02,01,10,35,8.50
2007,02,01,10,36,8.50
2007,02,01,10,37,8.50
2007,02,01,10,38,8.50
2007,02,01,10,39,8.50
2007,02,01,10,40,8.50
2007,02,01,10,41,8.60
2007,02,01,10,42,8.60
2007,02,01,10,43,8.60
2007,02,01,10,44,8.70
2007,02,01,10,45,8.70
2007,02,01,10,46,8.70
2007,02,01,10,47,8.70
2007,02,01,10,48,8.70
2007,02,01,10,49,8.70
2007,02,01,10,50,8.70
2007,02,01,10,51,8.70
2007,02,01,10,52,8.70
2007,02,01,10,53,8.70
2007,02,01,10,54,8.70
2007,02,01,10,55,8.70
2007,02,01,10,56,8.80
2007,02,01,10,57,8.80
2007,02,01,10,58,8.80
2007,02,01,10,59,8.80
2007,02,01,11,00,8.90
2007,02,01,11,01,8.90
2007,02,01,11,02,8.90
2007,02,01,11,03,8.90
2007,02,01,11,04,8.90
2007,02,01,11,05,8.90
2007,02,01,11,06,8.90
2007,02,01,11,07,8.90
2007,02,01,11,08,9.00
2007,02,01,11,09,9.00
2007,02,01,11,10,9.10
2007,02,01,11,11,9.10
2007,02,01,11,12,9.10
2007,02,01,11,13,9.10
2007,02,01,11,14,9.10
2007,02,01,11,15,9.10
2007,02,01,11,16,9.20
2007,02,01,11,17,9.20
2007,02,01,11,18,9.10
2007,02,01,11,19,9.10
2007,02,01,11,20,9.10
2007,02,01,11,21,9.10
2007,02,01,11,22,9.10
2007,02,01,11,23,9.10
2007,02,01,11,24,9.10
2007,02,01,11,25,9.10
2007,02,01,11,26,9.10
2007,02,01,11,27,9.10
2007,02,01,11,28,9.10
2007,02,01,11,29,9.10
2007,02,01,11,30,9.10
2007,02,01,11,31,9.10
2007,02,01,11,32,9.10
2007,02,01,11,33,9.20
2007,02,01,11,34,9.20
2007,02,01,11,35,9.20
2007,02,01,11,36,9.20
2007,02,01,11,37,9.20
2007,02,01,11,38,9.20
2007,02,01,11,39,9.20
2007,02,01,11,40,9.20
2007,02,01,11,41,9.20
2007,02,01,11,42,9.20
2007,02,01,11,43,9.20
2007,02,01,11,44,9.20
2007,02,01,11,45,9.30
2007,02,01,11,46,9.30
2007,02,01,11,47,9.30
2007,02,01,11,48,9.30
2007,02,01,11,49,9.30
2007,02,01,11,50,9.30
2007,02,01,11,51,9.40
2007,02,01,11,52,9.40
2007,02,01,11,53,9.40
2007,02,01,11,54,9.40
2007,02,01,11,55,9.40
2007,02,01,11,56,9.40
2007,02,01,11,57,9.40
2007,02,01,11,58,9.40
2007,02,01,11,59,9.40
2007,02,01,12,00,9.40
2007,02,01,12,01,9.40
2007,02,01,12,02,9.40
2007,02,01,12,03,9.40
2007,02,01,12,04,9.40
2007,02,01,12,05,9.40
2007,02,01,12,06,9.40
2007,02,01,12,07,9.40
2007,02,01,12,08,9.50
2007,02,01,12,09,9.50
2007,02,01,12,10,9.60
2007,02,01,12,11,9.60
2007,02,01,12,12,9.60
2007,02,01,12,13,9.60
2007,02,01,12,14,9.60
2007,02,01,12,15,9.60
2007,02,01,12,16,9.60
2007,02,01,12,17,9.60
2007,02,01,12,18,9.60
2007,02,01,12,19,9.60
2007,02,01,12,20,9.60
2007,02,01,12,21,9.60
2007,02,01,12,22,9.60
2007,02,01,12,23,9.60
2007,02,01,12,24,9.60
2007,02,01,12,25,9.60
2007,02,01,12,26,9.60
2007,02,01,12,27,9.60
2007,02,01,12,28,9.60
2007,02,01,12,29,9.60
2007,02,01,12,30,9.60
2007,02,01,12,31,9.60
2007,02,01,12,32,9.60
2007,02,01,12,33,9.60
2007,02,01,12,34,9.60
2007,02,01,12,35,9.60
2007,02,01,12,36,9.60
2007,02,01,12,37,9.60
2007,02,01,12,38,9.60
2007,02,01,12,39,9.70
2007,02,01,12,40,9.70
2007,02,01,12,41,9.80
2007,02,01,12,42,9.80
2007,02,01,12,43,9.80
2007,02,01,12,44,9.80
2007,02,01,12,45,9.80
2007,02,01,12,46,9.70
2007,02,01,12,47,9.70
2007,02,01,12,48,9.70
2007,02,01,12,49,9.70
2007,02,01,12,50,9.70
2007,02,01,12,51,9.70
2007,02,01,12,52,9.70
2007,02,01,12,53,9.70
2007,02,01,12,54,9.80
2007,02,01,12,55,9.80
2007,02,01,12,56,9.80
2007,02,01,12,57,9.90
2007,02,01,12,58,9.90
2007,02,01,12,59,9.90
2007,02,01,13,00,9.90
2007,02,01,13,01,9.90
2007,02,01,13,02,9.90
2007,02,01,13,03,9.90
2007,02,01,13,04,10.00
2007,02,01,13,05,10.00
2007,02,01,13,06,10.10
2007,02,01,13,07,10.10
2007,02,01,13,08,10.00
2007,02,01,13,09,10.00
2007,02,01,13,10,10.00
2007,02,01,13,11,10.00
2007,02,01,13,12,10.10
2007,02,01,13,13,10.10
2007,02,01,13,14,10.10
2007,02,01,13,15,10.00
2007,02,01,13,16,10.00
2007,02,01,13,17,10.00
2007,02,01,13,18,10.00
2007,02,01,13,19,10.00
2007,02,01,13,20,10.00
2007,02,01,13,21,10.20
2007,02,01,13,22,10.20
2007,02,01,13,23,10.20
2007,02,01,13,24,10.20
2007,02,01,13,25,10.20
2007,02,01,13,26,10.20
2007,02,01,13,27,10.20
2007,02,01,13,28,10.20
2007,02,01,13,29,10.10
2007,02,01,13,30,10.10
2007,02,01,13,31,10.20
2007,02,01,13,32,10.20
2007,02,01,13,33,10.20
2007,02,01,13,34,10.20
2007,02,01,13,35,10.20
2007,02,01,13,36,10.20
2007,02,01,13,37,10.20
2007,02,01,13,38,10.20
2007,02,01,13,39,10.30
2007,02,01,13,40,10.30
2007,02,01,13,41,10.30
2007,02,01,13,42,10.30
2007,02,01,13,43,10.30
2007,02,01,13,44,10.30
2007,02,01,13,45,10.30
2007,02,01,13,46,10.30
2007,02,01,13,47,10.30
2007,02,01,13,48,10.30
2007,02,01,13,49,10.30
2007,02,01,13,50,10.30
2007,02,01,13,51,10.30
2007,02,01,13,52,10.30
2007,02,01,13,53,10.30
2007,02,01,13,54,10.30
2007,02,01,13,55,10.30
2007,02,01,13,56,10.40
2007,02,01,13,57,10.40
2007,02,01,13,58,10.50
2007,02,01,13,59,10.50
2007,02,01,14,00,10.60
2007,02,01,14,01,10.60
2007,02,01,14,02,10.60
2007,02,01,14,03,10.60
2007,02,01,14,04,10.60
2007,02,01,14,05,10.60
2007,02,01,14,06,10.50
2007,02,01,14,07,10.50
2007,02,01,14,08,10.50
2007,02,01,14,09,10.40
2007,02,01,14,10,10.40
2007,02,01,14,11,10.40
2007,02,01,14,12,10.40
2007,02,01,14,13,10.40
2007,02,01,14,14,10.30
2007,02,01,14,15,10.30
2007,02,01,14,16,10.30
2007,02,01,14,17,10.30
2007,02,01,14,18,10.30
2007,02,01,14,19,10.30
2007,02,01,14,20,10.20
2007,02,01,14,21,10.20
2007,02,01,14,22,10.20
2007,02,01,14,23,10.20
2007,02,01,14,24,10.20
2007,02,01,14,25,10.20
2007,02,01,14,26,10.20
2007,02,01,14,27,10.20
2007,02,01,14,28,10.20
2007,02,01,14,29,10.10
2007,02,01,14,30,10.10
2007,02,01,14,31,10.10
2007,02,01,14,32,10.10
2007,02,01,14,33,10.10
2007,02,01,14,34,10.10
2007,02,01,14,35,10.10
2007,02,01,14,36,10.10
2007,02,01,14,37,10.10
2007,02,01,14,38,10.00
2007,02,01,14,39,10.00
2007,02,01,14,40,10.00
2007,02,01,14,41,10.00
2007,02,01,14,42,10.10
2007,02,01,14,43,10.10
2007,02,01,14,44,10.10
2007,02,01,14,45,10.10
2007,02,01,14,46,10.10
2007,02,01,14,47,10.10
2007,02,01,14,48,10.00
2007,02,01,14,49,10.00
2007,02,01,14,50,10.00
2007,02,01,14,51,10.00
2007,02,01,14,52,10.10
2007,02,01,14,53,10.10
2007,02,01,14,54,10.10
2007,02,01,14,55,10.20
2007,02,01,14,56,10.20
2007,02,01,14,57,10.20
2007,02,01,14,58,10.20
2007,02,01,14,59,10.20
2007,02,01,15,00,10.20
2007,02,01,15,01,10.20
2007,02,01,15,02,10.20
2007,02,01,15,03,10.20
2007,02,01,15,04,10.20
2007,02,01,15,05,10.20
2007,02,01,15,06,10.30
2007,02,01,15,07,10.30
2007,02,01,15,08,10.30
2007,02,01,15,09,10.30
2007,02,01,15,10,10.30
2007,02,01,15,11,10.40
2007,02,01,15,12,10.40
2007,02,01,15,13,10.40
2007,02,01,15,14,10.40
2007,02,01,15,15,10.40
2007,02,01,15,16,10.40
2007,02,01,15,17,10.40
2007,02,01,15,18,10.30
2007,02,01,15,19,10.30
2007,02,01,15,20,10.30
2007,02,01,15,21,10.30
2007,02,01,15,22,10.30
2007,02,01,15,23,10.30
2007,02,01,15,24,10.40
2007,02,01,15,25,10.40
2007,02,01,15,26,10.30
2007,02,01,15,27,10.40
2007,02,01,15,28,10.40
2007,02,01,15,29,10.40
2007,02,01,15,30,10.40
2007,02,01,15,31,10.40
2007,02,01,15,32,10.50
2007,02,01,15,33,10.50
2007,02,01,15,34,10.50
2007,02,01,15,35,10.50
2007,02,01,15,36,10.40
2007,02,01,15,37,10.40
2007,02,01,15,38,10.40
2007,02,01,15,39,10.40
2007,02,01,15,40,10.40
2007,02,01,15,41,10.40
2007,02,01,15,42,10.40
2007,02,01,15,43,10.40
2007,02,01,15,44,10.40
2007,02,01,15,45,10.40
2007,02,01,15,46,10.40
2007,02,01,15,47,10.30
2007,02,01,15,48,10.40
2007,02,01,15,49,10.40
2007,02,01,15,50,10.40
2007,02,01,15,51,10.40
2007,02,01,15,52,10.30
2007,02,01,15,53,10.30
2007,02,01,15,54,10.20
2007,02,01,15,55,10.20
2007,02,01,15,56,10.10
2007,02,01,15,57,10.10
2007,02,01,15,58,10.00
2007,02,01,15,59,10.00
2007,02,01,16,00,9.90
2007,02,01,16,01,9.90
2007,02,01,16,02,9.80
2007,02,01,16,03,9.80
2007,02,01,16,04,9.80
2007,02,01,16,05,9.80
2007,02,01,16,06,9.80
2007,02,01,16,07,9.70
2007,02,01,16,08,9.70
2007,02,01,16,09,9.70
2007,02,01,16,10,9.60
2007,02,01,16,11,9.60
2007,02,01,16,12,9.60
2007,02,01,16,13,9.60
2007,02,01,16,14,9.50
2007,02,01,16,15,9.50
2007,02,01,16,16,9.40
2007,02,01,16,17,9.40
2007,02,01,16,18,9.40
2007,02,01,16,19,9.40
2007,02,01,16,20,9.30
2007,02,01,16,21,9.30
2007,02,01,16,22,9.30
2007,02,01,16,23,9.30
2007,02,01,16,24,9.30
2007,02,01,16,25,9.20
2007,02,01,16,26,9.20
2007,02,01,16,27,9.20
2007,02,01,16,28,9.20
2007,02,01,16,29,9.10
2007,02,01,16,30,9.10
2007,02,01,16,31,9.10
2007,02,01,16,32,9.00
2007,02,01,16,33,9.00
2007,02,01,16,34,9.00
2007,02,01,16,35,9.00
2007,02,01,16,36,9.00
2007,02,01,16,37,9.00
2007,02,01,16,38,9.00
2007,02,01,16,39,9.00
2007,02,01,16,40,8.90
2007,02,01,16,41,8.90
2007,02,01,16,42,8.90
2007,02,01,16,43,8.90
2007,02,01,16,44,8.80
2007,02,01,16,45,8.80
2007,02,01,16,46,8.70
2007,02,01,16,47,8.70
2007,02,01,16,48,8.60
2007,02,01,16,49,8.50
2007,02,01,16,50,8.40
2007,02,01,16,51,8.40
2007,02,01,16,52,8.30
2007,02,01,16,53,8.30
2007,02,01,16,54,8.20
2007,02,01,16,55,8.10
2007,02,01,16,56,8.00
2007,02,01,16,57,8.00
2007,02,01,16,58,7.90
2007,02,01,16,59,7.80
2007,02,01,17,00,7.70
2007,02,01,17,01,7.60
2007,02,01,17,02,7.60
2007,02,01,17,03,7.50
2007,02,01,17,04,7.50
2007,02,01,17,05,7.40
2007,02,01,17,06,7.40
2007,02,01,17,07,7.30
2007,02,01,17,08,7.30
2007,02,01,17,09,7.20
2007,02,01,17,10,7.20
2007,02,01,17,11,7.20
2007,02,01,17,12,7.20
2007,02,01,17,13,7.10
2007,02,01,17,14,7.00
2007,02,01,17,15,7.00
2007,02,01,17,16,6.90
2007,02,01,17,17,6.80
2007,02,01,17,18,6.70
2007,02,01,17,19,6.70
2007,02,01,17,20,6.60
2007,02,01,17,21,6.50
2007,02,01,17,22,6.40
2007,02,01,17,23,6.30
2007,02,01,17,24,6.20
2007,02,01,17,25,6.20
2007,02,01,17,26,6.10
2007,02,01,17,27,6.10
2007,02,01,17,28,6.10
2007,02,01,17,29,6.10
2007,02,01,17,30,6.10
2007,02,01,17,31,6.00
2007,02,01,17,32,6.00
2007,02,01,17,33,6.00
2007,02,01,17,34,6.00
2007,02,01,17,35,6.00
2007,02,01,17,36,6.00
2007,02,01,17,37,6.00
2007,02,01,17,38,6.00
2007,02,01,17,39,6.00
2007,02,01,17,40,5.90
2007,02,01,17,41,5.90
2007,02,01,17,42,5.90
2007,02,01,17,43,5.90
2007,02,01,17,44,5.80
2007,02,01,17,45,5.80
2007,02,01,17,46,5.80
2007,02,01,17,47,5.70
2007,02,01,17,48,5.70
2007,02,01,17,49,5.70
2007,02,01,17,50,5.60
2007,02,01,17,51,5.60
2007,02,01,17,52,5.60